Location: Ferchesar
(52.6477°N, 12.4298°E)
Time: 04:28:19
(UTC+02:00)

Vanguard 3 - Pass Details

Date: 03 March 2021
Orbit: 508 x 3262 km, 33.3° (Epoch: 15 April)

Event Time Altitude Azimuth Distance (km) Brightness Sun altitude
Rises 18:11:28 0° 254° (WSW) 6,974 14.2 -3.6°
Reaches altitude 10° 18:17:18 10° 245° (WSW) 5,653 12.9 -4.5°
Maximum altitude 18:29:58 30° 194° (SSW) 3,299 10.4 -6.4°
Drops below altitude 10° 18:38:27 10° 139° (SE) 3,727 10.1 -7.7°
Sets 18:41:24 0° 128° (SE) 4,356 10.4 -8.1°
